[[{"header":{"parameterUnit":"m.s-1","parameterCategory":1,"la1":30.2991,"la2":30.254,"lo1":-89.0895,"lo2":-89.0444,"dy":0.0017,"dx":0.0017,"nx":28,"ny":28,"refTime":"2023-10-12T09:00:00:Z","depth":0,"parameterNumber":2,"parameterNumberName":"U-component_of_WINDS"},"data":[0,0,0,0,0,0,0,0,0,0,0,0,0,0,0,0,0,0,0,0,0,0,0,0,0,0,0,0,0,0,0,0,0,0,0,0,0,0,0,0,0,0,0,0,0,0,0,0,0,0,0,0,0,0,0,0,0,0,-0.4823,-0.4823,0,-0.4863,-0.4864,-0.4864,-0.4871,-0.487,-0.487,-0.487,-0.4911,-0.4912,-0.4914,0,0,0,0,0,0,0,0,0,0,0,0,0,-0.4752,-0.4753,-0.4823,-0.4823,-0.4824,-0.4863,-0.4864,-0.4864,-0.4871,-0.487,-0.487,-0.487,-0.491,-0.4912,-0.4914,0,0,0,0,0,0,0,0,0,0,0,0,0,-0.4786,-0.4753,-0.4823,-0.4832,-0.4833,-0.4863,-0.4864,-0.4864,-0.4871,-0.487,-0.487,-0.4869,-0.491,-0.4912,-0.4914,-0.4937,0,0,-0.492,-0.4921,0,0,0,0,0,0,0,0,-0.4784,-0.4789,-0.483,-0.4831,-0.4833,-0.4861,-0.4853,-0.4889,-0.4871,-0.4857,-0.487,-0.4869,-0.4895,-0.4898,-0.4907,-0.4939,-0.4941,-0.4921,-0.4922,-0.4923,-0.4923,0,0,0,0,0,0,0,-0.4782,-0.4787,-0.4839,-0.4831,-0.4832,-0.4834,-0.4838,-0.486,-0.4878,-0.4858,-0.4858,-0.4863,-0.4895,-0.4905,-0.4908,-0.4941,-0.492,-0.4922,-0.4924,-0.4924,-0.4994,-0.4995,0,0,0,0,0,0,-0.4778,-0.4785,-0.4838,-0.484,-0.4807,-0.4836,-0.4841,-0.4853,-0.4878,-0.4881,-0.4864,-0.4863,-0.4901,-0.4905,-0.4909,-0.4938,-0.4923,-0.4925,-0.4926,-0.4994,-0.4994,-0.4995,0,0,0,0,0,0,-0.4776,-0.4782,-0.4836,-0.4813,-0.482,-0.4837,-0.4851,-0.4854,-0.4863,-0.4882,-0.4885,-0.487,-0.4901,-0.4906,-0.493,-0.4939,-0.4926,-0.4928,-0.4993,-0.4994,-0.4995,-0.4995,0,0,0,0,0,0,-0.4774,-0.4782,-0.4791,-0.4813,-0.4821,-0.4856,-0.4852,-0.4855,-0.4867,-0.4867,-0.4889,-0.4892,-0.4901,-0.4927,-0.4932,-0.4942,-0.4929,-0.4992,-0.4993,-0.4994,-0.4994,-0.4996,-0.4997,0,0,0,0,0,-0.4772,-0.479,-0.4791,-0.4798,-0.4833,-0.4857,-0.4861,-0.4872,-0.4868,-0.4877,-0.4889,-0.4891,-0.4937,-0.4929,-0.4935,-0.4946,-0.4992,-0.4993,-0.4994,-0.4994,-0.4996,-0.4997,0,0,0,0,0,0,-0.4769,-0.4793,-0.4795,-0.4821,-0.4837,-0.4858,-0.487,-0.4873,-0.4891,-0.489,-0.4902,-0.4907,-0.493,-0.494,-0.4931,-0.4969,-0.4964,-0.4967,-0.4962,-0.4964,-0.4965,-0.4962,-0.4931,0,0,0,0,0,-0.4771,-0.4788,-0.4809,-0.4829,-0.4837,-0.4852,-0.4863,-0.4869,-0.4886,-0.4893,-0.4907,-0.4923,-0.4941,-0.4953,-0.4971,-0.4996,-0.5,-0.5006,-0.5007,-0.5009,-0.5011,-0.5024,-0.5026,-0.4999,-0.4999,-0.4999,0,0,-0.4776,-0.4791,-0.4802,-0.4829,-0.4842,-0.486,-0.4858,-0.4877,-0.489,-0.4896,-0.4919,-0.493,-0.4949,-0.4973,-0.4985,-0.4983,-0.5019,-0.501,-0.5011,-0.5012,-0.5025,-0.5028,-0.503,-0.5,-0.5,-0.5,0,0,-0.4794,-0.4807,-0.4826,-0.4839,-0.4859,-0.4869,-0.4873,-0.4894,-0.4901,-0.4925,-0.4929,-0.4945,-0.4976,-0.4989,-0.5,-0.5022,-0.5025,-0.5028,-0.5035,-0.5048,-0.505,-0.5052,-0.5059,-0.5062,-0.503,-0.503,-0.503,0,-0.4798,-0.4825,-0.4835,-0.4854,-0.4865,-0.4872,-0.489,-0.4902,-0.4927,-0.4935,-0.4932,-0.4971,-0.4984,-0.5011,-0.5016,-0.5025,-0.503,-0.5025,-0.5049,-0.5051,-0.5053,-0.506,-0.5063,-0.503,-0.503,-0.503,-0.503,0,-0.4828,-0.4846,-0.4859,-0.4882,-0.4896,-0.4914,-0.4927,-0.4939,-0.4944,-0.4954,-0.4977,-0.4993,-0.5014,-0.5021,-0.5027,-0.5049,-0.5047,-0.5047,-0.5042,-0.5055,-0.5062,-0.5065,-0.503,-0.503,-0.503,-0.503,0,0,-0.4845,-0.4874,-0.4878,-0.4889,-0.4911,-0.4925,-0.4944,-0.4964,-0.4974,-0.4991,-0.5006,-0.5032,-0.5031,-0.5044,-0.505,-0.5062,-0.5078,-0.506,-0.506,-0.5062,-0.5103,-0.5103,-0.5106,-0.5079,-0.508,-0.5081,-0.5101,0,-0.4866,-0.4899,-0.4909,-0.4937,-0.4954,-0.496,-0.4976,-0.4991,-0.5,-0.5016,-0.5027,-0.5045,-0.5043,-0.505,-0.5062,-0.5073,-0.5086,-0.5072,-0.5094,-0.5094,-0.5088,-0.511,-0.511,-0.5128,-0.5104,-0.5104,-0.5105,0,-0.4894,-0.4911,-0.494,-0.496,-0.4967,-0.4982,-0.5001,-0.5016,-0.5033,-0.5039,-0.5052,-0.5058,-0.5077,-0.5071,-0.5097,-0.5088,-0.5097,-0.5104,-0.5105,-0.5107,-0.51,-0.5112,-0.5134,-0.5137,-0.5109,-0.5109,-0.5108,0,-0.4903,-0.4933,-0.4955,-0.4964,-0.4987,-0.4997,-0.5007,-0.5023,-0.5035,-0.5051,-0.5059,-0.5077,-0.5087,-0.5101,-0.5112,-0.5107,-0.5137,-0.5132,-0.5142,-0.5142,-0.5148,-0.5148,-0.5172,-0.5155,-0.5155,-0.5155,-0.5155,0,-0.4925,-0.4942,-0.4959,-0.4972,-0.4992,-0.5003,-0.5022,-0.5033,-0.5047,-0.5062,-0.5069,-0.5083,-0.5095,-0.5111,-0.5119,-0.5139,-0.5144,-0.5149,-0.5151,-0.5148,-0.5148,-0.5155,-0.5153,-0.5155,-0.5155,-0.5155,-0.5155,0,-0.4938,-0.495,-0.4974,-0.4994,-0.4999,-0.5013,-0.503,-0.5043,-0.5052,-0.5071,-0.5076,-0.5091,-0.511,-0.5122,-0.5145,-0.5151,-0.5173,-0.5174,-0.5167,-0.5168,-0.5177,-0.5176,-0.5207,-0.5211,-0.5191,-0.5191,-0.5191,0,-0.4951,-0.4965,-0.4986,-0.4996,-0.5007,-0.5024,-0.5035,-0.5046,-0.5058,-0.5078,-0.5088,-0.5107,-0.5123,-0.5152,-0.5165,-0.5183,-0.5185,-0.5194,-0.5188,-0.5184,-0.5184,-0.5183,-0.5184,-0.5195,-0.5196,-0.5196,-0.5196,0,-0.4972,-0.4977,-0.4994,-0.5012,-0.5026,-0.5041,-0.5056,-0.5064,-0.5077,-0.509,-0.5109,-0.5121,-0.5145,-0.5164,-0.5183,-0.5193,-0.5196,-0.5198,-0.5201,-0.5198,-0.5193,-0.5196,-0.517,-0.5197,-0.5197,-0.5197,-0.5197,-0.5197,-0.4986,-0.4998,-0.5014,-0.5032,-0.5045,-0.5059,-0.5071,-0.5083,-0.5099,-0.5119,-0.5124,-0.5144,-0.516,-0.5186,-0.5197,-0.5212,-0.5211,-0.5215,-0.5217,-0.5217,-0.5217,-0.5191,-0.5215,-0.5215,-0.5215,-0.5215,-0.5215,0,-0.5007,-0.5018,-0.5034,-0.5055,-0.5069,-0.5071,-0.5087,-0.5099,-0.5116,-0.5131,-0.5146,-0.5168,-0.5186,-0.52,-0.5218,-0.5227,-0.5229,-0.5232,-0.5231,-0.5233,-0.5218,-0.5213,-0.523,-0.523,-0.523,-0.523,-0.523,-0.523,-0.5019,-0.504,-0.5047,-0.5074,-0.5085,-0.5104,-0.5113,-0.5126,-0.5137,-0.5161,-0.5176,-0.5185,-0.52,-0.5219,-0.5235,-0.5239,-0.5245,-0.5247,-0.5251,-0.5236,-0.5234,-0.5233,-0.5228,-0.5248,-0.5248,-0.5265,-0.5265,-0.5265]},{"header":{"parameterUnit":"m.s-1","parameterCategory":1,"la1":30.2991,"la2":30.254,"lo1":-89.0895,"lo2":-89.0444,"dy":0.0017,"dx":0.0017,"nx":28,"ny":28,"refTime":"2023-10-12T09:00:00:Z","depth":0,"parameterNumber":3,"parameterNumberName":"V-component_of_WINDS"},"data":[0,0,0,0,0,0,0,0,0,0,0,0,0,0,0,0,0,0,0,0,0,0,0,0,0,0,0,0,0,0,0,0,0,0,0,0,0,0,0,0,0,0,0,0,0,0,0,0,0,0,0,0,0,0,0,0,0,0,-1.7036,-1.7036,0,-1.7037,-1.7037,-1.7037,-1.7016,-1.7016,-1.7015,-1.7015,-1.7016,-1.7016,-1.7017,0,0,0,0,0,0,0,0,0,0,0,0,0,-1.7014,-1.7014,-1.7036,-1.7036,-1.7036,-1.7037,-1.7037,-1.7037,-1.7016,-1.7016,-1.7015,-1.7014,-1.7015,-1.7016,-1.7017,0,0,0,0,0,0,0,0,0,0,0,0,0,-1.702,-1.7015,-1.7036,-1.7025,-1.7025,-1.7037,-1.7037,-1.7037,-1.7016,-1.7016,-1.7015,-1.7014,-1.7015,-1.7016,-1.7017,-1.7039,0,0,-1.7019,-1.702,0,0,0,0,0,0,0,0,-1.702,-1.7021,-1.7027,-1.7026,-1.7025,-1.7026,-1.703,-1.7038,-1.7017,-1.702,-1.7015,-1.7014,-1.702,-1.702,-1.7022,-1.7039,-1.7039,-1.702,-1.702,-1.702,-1.7021,0,0,0,0,0,0,0,-1.702,-1.7021,-1.7036,-1.7027,-1.7026,-1.7021,-1.7021,-1.7031,-1.7024,-1.7019,-1.7018,-1.7018,-1.7019,-1.7021,-1.7022,-1.7039,-1.702,-1.702,-1.7021,-1.7021,-1.7075,-1.7076,0,0,0,0,0,0,-1.7021,-1.7021,-1.7036,-1.7036,-1.702,-1.7022,-1.7022,-1.7026,-1.7024,-1.7023,-1.7019,-1.7017,-1.702,-1.7021,-1.7022,-1.7048,-1.702,-1.7021,-1.7022,-1.7074,-1.7075,-1.7076,0,0,0,0,0,0,-1.702,-1.7022,-1.7036,-1.7028,-1.7029,-1.7023,-1.7028,-1.7027,-1.7029,-1.7024,-1.7023,-1.7023,-1.702,-1.7021,-1.7035,-1.7048,-1.7022,-1.7022,-1.7073,-1.7074,-1.7076,-1.7101,0,0,0,0,0,0,-1.702,-1.7022,-1.7031,-1.7028,-1.703,-1.7049,-1.7029,-1.7028,-1.7031,-1.7029,-1.7027,-1.7026,-1.7019,-1.7034,-1.7036,-1.7049,-1.7023,-1.7072,-1.7074,-1.7075,-1.7099,-1.7103,-1.7106,0,0,0,0,0,-1.7019,-1.7037,-1.7031,-1.7033,-1.7041,-1.705,-1.7051,-1.7043,-1.7032,-1.704,-1.7037,-1.7026,-1.7046,-1.7036,-1.7038,-1.7051,-1.7071,-1.7073,-1.7075,-1.7097,-1.7102,-1.7106,0,0,0,0,0,0,-1.7041,-1.7037,-1.703,-1.7048,-1.705,-1.7047,-1.7057,-1.7048,-1.7053,-1.705,-1.704,-1.704,-1.7056,-1.7055,-1.7043,-1.7072,-1.7057,-1.7059,-1.7073,-1.7077,-1.7081,-1.7081,-1.7024,0,0,0,0,0,-1.7048,-1.7057,-1.7052,-1.7069,-1.707,-1.7064,-1.7068,-1.7061,-1.7062,-1.7063,-1.706,-1.7061,-1.7068,-1.7072,-1.7078,-1.7098,-1.7098,-1.7108,-1.7112,-1.7115,-1.7118,-1.7128,-1.7133,-1.7083,-1.7083,-1.7083,0,0,-1.7063,-1.7062,-1.7067,-1.7074,-1.7074,-1.7083,-1.7064,-1.7074,-1.7081,-1.7064,-1.7077,-1.7076,-1.7076,-1.7094,-1.7101,-1.7093,-1.7131,-1.7118,-1.712,-1.7121,-1.7131,-1.7136,-1.714,-1.7084,-1.7084,-1.7084,0,0,-1.7094,-1.7094,-1.7108,-1.7109,-1.711,-1.7105,-1.7108,-1.7107,-1.7105,-1.7118,-1.7106,-1.7113,-1.7125,-1.7126,-1.7128,-1.716,-1.715,-1.7162,-1.7182,-1.7192,-1.7196,-1.72,-1.7211,-1.7215,-1.7164,-1.7165,-1.7165,0,-1.7112,-1.7125,-1.7116,-1.7127,-1.713,-1.7116,-1.7129,-1.7131,-1.7133,-1.7136,-1.7127,-1.7141,-1.714,-1.7158,-1.7166,-1.7168,-1.7171,-1.7162,-1.7196,-1.72,-1.7203,-1.7213,-1.7218,-1.7166,-1.7166,-1.7166,-1.7165,0,-1.7147,-1.7156,-1.7167,-1.717,-1.7175,-1.7187,-1.718,-1.7185,-1.7179,-1.7175,-1.7189,-1.7188,-1.7193,-1.7197,-1.719,-1.7213,-1.7208,-1.7198,-1.7182,-1.7209,-1.7219,-1.7223,-1.7168,-1.7168,-1.7167,-1.7167,0,0,-1.7192,-1.719,-1.7194,-1.7196,-1.7196,-1.7203,-1.7214,-1.722,-1.7225,-1.7227,-1.7237,-1.7247,-1.7237,-1.724,-1.7233,-1.7242,-1.7268,-1.7231,-1.7231,-1.7238,-1.7293,-1.7301,-1.7306,-1.7261,-1.7262,-1.7263,-1.7293,0,-1.7222,-1.7242,-1.7235,-1.7255,-1.7264,-1.725,-1.7261,-1.7262,-1.7259,-1.7265,-1.7262,-1.7269,-1.7256,-1.7258,-1.7266,-1.7263,-1.7279,-1.726,-1.727,-1.727,-1.727,-1.7311,-1.7319,-1.7348,-1.7297,-1.7298,-1.7298,0,-1.726,-1.7264,-1.7286,-1.7285,-1.7288,-1.7297,-1.7302,-1.7308,-1.7309,-1.7306,-1.7309,-1.7301,-1.7312,-1.7296,-1.7312,-1.73,-1.7303,-1.7302,-1.7303,-1.7303,-1.7286,-1.7313,-1.7357,-1.7361,-1.7304,-1.7304,-1.7303,0,-1.7291,-1.7302,-1.7316,-1.7318,-1.7317,-1.7324,-1.7323,-1.7324,-1.7327,-1.7331,-1.7334,-1.7339,-1.7341,-1.7345,-1.7338,-1.7328,-1.7355,-1.7339,-1.7353,-1.7353,-1.7359,-1.7359,-1.7405,-1.7362,-1.7361,-1.7361,-1.7361,0,-1.7325,-1.7339,-1.733,-1.7339,-1.7354,-1.7345,-1.736,-1.7358,-1.7359,-1.7367,-1.7355,-1.7363,-1.7354,-1.7361,-1.7355,-1.7369,-1.737,-1.7368,-1.7367,-1.7369,-1.7369,-1.7371,-1.7369,-1.7362,-1.7362,-1.7362,-1.7362,0,-1.7362,-1.7356,-1.7371,-1.7369,-1.7369,-1.738,-1.7378,-1.7386,-1.7383,-1.7393,-1.7395,-1.7389,-1.7397,-1.739,-1.7398,-1.7394,-1.7412,-1.7408,-1.7412,-1.7411,-1.7425,-1.7424,-1.7474,-1.748,-1.7433,-1.7434,-1.7434,0,-1.7384,-1.7395,-1.7394,-1.7399,-1.7399,-1.7407,-1.7411,-1.7403,-1.7407,-1.7409,-1.7417,-1.7424,-1.7429,-1.7441,-1.7438,-1.7443,-1.7439,-1.7456,-1.744,-1.7442,-1.7439,-1.7439,-1.744,-1.7459,-1.746,-1.746,-1.7461,0,-1.7425,-1.7422,-1.7428,-1.7433,-1.7438,-1.7442,-1.7445,-1.7449,-1.7441,-1.7446,-1.7454,-1.7458,-1.7466,-1.7472,-1.7477,-1.7476,-1.7467,-1.7466,-1.747,-1.7472,-1.7474,-1.7473,-1.7421,-1.7465,-1.7464,-1.7464,-1.7464,-1.7464,-1.7455,-1.7463,-1.7464,-1.7472,-1.7473,-1.7476,-1.7483,-1.7481,-1.7487,-1.7493,-1.7488,-1.7497,-1.7498,-1.7503,-1.7504,-1.7511,-1.7504,-1.7509,-1.751,-1.7512,-1.7514,-1.7473,-1.7511,-1.7511,-1.7511,-1.7511,-1.7511,0,-1.7495,-1.7495,-1.7501,-1.7506,-1.7512,-1.7503,-1.7505,-1.7511,-1.7519,-1.7521,-1.7526,-1.7535,-1.7542,-1.7539,-1.7544,-1.7551,-1.7547,-1.7552,-1.7552,-1.7552,-1.752,-1.7516,-1.7556,-1.7556,-1.7556,-1.7556,-1.7556,-1.7556,-1.7516,-1.753,-1.7527,-1.7542,-1.7541,-1.7551,-1.7553,-1.7556,-1.7557,-1.7568,-1.7573,-1.7571,-1.7571,-1.7577,-1.7582,-1.7581,-1.7584,-1.7591,-1.7589,-1.7559,-1.7554,-1.755,-1.7547,-1.7592,-1.7592,-1.762,-1.7621,-1.7621]}]]